www.pogodaiklimat.ru

Погода и климат >> Архив погоды >> Канада >> Rankin Inlet


ПОГОДА в Rankin Inlet

  • Прогноз погоды в Rankin Inlet
  • Монитор погоды в Rankin Inlet
  • Климат города

АРХИВ ПОГОДЫ в Rankin Inlet

Время (UTC), дата Ветер
(напр.,м/с)
 
Видим.   Явления Облачность Т
(С)
Тd
(С)
f
(%)
Тe
(С)
Тes
(С)
Комфортность P
(гПа)
Po
(гПа)
Тmin
(С)
Tmax
(С)
R
(мм)
R24
(мм)
S
(см)
03 16.07 ЮЗ 6 24 км ясно +10.9 +5.2 68 +8 +8 1011.9 1007.8
06 16.07 СЗ 3 24 км ясно +10.2 +7.3 82 +8 +8 1011.5 1007.5 +5.4 +16.3 181
09 16.07 С 5 24 км ясно +10.0 +7.8 86 +7 +7 1011.5 1007.4
12 16.07 С 6 24 км ясно +12.8 +9.4 80 +10 +11 1011.9 1007.9 +8.9 +16.3
15 16.07 В 2 45 км ясно +17.1 +7.7 54 +18 +27 1012.1 1008.1
18 16.07 Ю 6 45 км ясно +15.1 +6.0 54 +14 +19 1012.1 1008.1 +8.9 +17.5
21 16.07 С 7 45 км 1/1 1500 м
[]
+20.6 +5.8 38 +21 +24 комфорт 1011.8 1007.8
00 17.07 СЗ 4 45 км 1/0
[]
+20.6 +6.3 39 +22 +23 комфорт 1011.6 1007.6 +8.9 +21.0
03 17.07 ЮЗ 3 24 км 4/0
[]
+14.6 +8.2 65 +14 +14 1011.5 1007.5
06 17.07 З 3 24 км 3/0
[Ci fib]
+14.0 +8.2 68 +13 +13 1011.4 1007.4 +8.9 +21.0 21
09 17.07 С 2 24 км 3/0
[]
+11.6 +8.8 83 +11 +11 1011.3 1007.3
12 17.07 В 2 45 км 4/0
[Ci fib]
+15.3 +3.6 45 +16 +18 1010.9 1006.9 +10.8 +21.0
15 17.07 ЮВ 5 45 км 4/0
[]
+14.6 +5.6 55 +13 +17 1010.4 1006.4
18 17.07 ЮВ 5 45 км 4/1 1500 м
[Sc Ci fib]
+14.3 +7.3 63 +13 +19 1009.6 1005.6 +10.8 +16.0
21 17.07 В 6 45 км 6/6 1000 м
[]
+11.7 +7.3 74 +9 +11 1008.8 1004.8
00 18.07 В 7 45 км 8/3 1500 м
[Sc Ac As Ci sp]
+9.1 +7.0 87 +5 +5 1007.8 1003.8 +9.1 +16.0
03 18.07 В 7 24 км 9/0
[]
+8.2 +6.6 90 +4 +4 1006.5 1002.5
06 18.07 В 5 24 км 9/3 1500 м
[Sc Ac trans]
+7.1 +5.9 92 +3 +3 1006.0 1002.0 +7.1 +16.0 5
09 18.07 ЮВ 5 12 км 9/9 1500 м
[]
+7.0 +5.9 93 +3 +3 1004.5 1000.5
12 18.07 В 8 12 км слабый ливневой дождь 9/9 1500 м
[Sc]
+6.7 +6.1 96 +1 +1 1004.4 1000.3 +6.4 +16.0 0.2
15 18.07 В 7 24 км 10/10 1500 м
[]
+7.2 +6.0 92 +2 +2 1005.1 1001.0
18 18.07 В 7 45 км {дождь} 10/10 300 м
[Cu Sc]
+8.3 +6.4 88 +4 +4 1006.7 1002.6 +6.4 +8.4 4
21 18.07 В 6 45 км 8/8 100 м
[]
+9.2 +6.0 80 +6 +6 1008.0 1003.9
00 19.07 В 7 24 км {дождь} 8/1 100 м
[St Ac As Ci sp]
+7.4 +5.3 87 +3 +3 1009.3 1005.2 +6.4 +9.8 0.4
03 19.07 В 7 24 км 9/9 200 м
[]
+5.7 +4.1 89 0 0 1010.5 1006.4
06 19.07 В 3 12 км 10/10 100 м
[St]
+5.4 +4.7 95 +2 +2 1011.6 1007.5 +4.9 +9.8 111
09 19.07 СЗ 4 2400 м 10/10 50 м
[]
+5.3 +5.1 99 +1 +1 1012.5 1008.4
12 19.07 С 5 24 км {туман} 6/4 100 м
[Sc Ci fib]
+8.9 +6.9 87 +6 +6 1013.2 1009.1 +4.1 +9.8
15 19.07 С 5 45 км 5/5 300 м
[]
+13.7 +7.8 68 +12 +14 1013.7 1009.6
18 19.07 Ю 3 45 км 9/6 300 м
[Cu Sc Ci fib]
+12.3 +7.2 71 +11 +14 1014.7 1010.6 +4.1 +14.8
21 19.07 Ю 5 45 км 6/6 600 м
[]
+13.5 +7.8 68 +12 +14 1015.2 1011.1
00 20.07 Ю 5 24 км 4/1 1000 м
[Cu hum Ci fib]
+12.8 +7.5 70 +11 +12 1015.6 1011.5 +4.1 +14.8
03 20.07 Ю 4 24 км 4/0
[]
+11.1 +7.7 80 +9 +9 1015.9 1011.8
06 20.07 Ю 3 24 км 4/0
[Ci fib]
+7.9 +6.6 91 +5 +5 1016.7 1012.6 +4.1 +14.8
09 20.07 ЮЗ 2 24 км 3/0
[]
+8.2 +6.7 90 +6 +6 1017.0 1012.9
12 20.07 З 2 45 км 3/0
[Ci fib]
+10.2 +8.5 89 +9 +10 1017.7 1013.6 +7.3 +14.8
15 20.07 З 3 45 км 4/0
[]
+17.1 +12.1 72 +17 +22 1018.4 1014.3
18 20.07 Ю 4 45 км 1/1 1000 м
[Cu hum Ci fib]
+19.4 +11.6 61 +21 +29 комфорт 1018.5 1014.4 +7.3 +19.9
21 20.07 З 6 45 км 6/6 1500 м
[]
+21.9 +9.7 46 +23 +25 комфорт 1019.3 1015.2
00 21.07 СЗ 5 24 км 4/1 1500 м
[Cu hum Ci fib]
+20.5 +9.2 48 +22 +23 комфорт 1019.6 1015.5 +7.3 +22.2
03 21.07 СЗ 2 24 км 3/0
[]
+15.8 +10.2 69 +16 +16 1020.3 1016.2
06 21.07 З 3 24 км 3/0
[Ci fib]
+12.2 +9.6 84 +11 +11 1021.4 1017.3 +7.3 +22.2 0
09 21.07 ЮЗ 2 24 км 3/0
[]
+11.1 +9.0 87 +10 +10 1021.7 1017.6
12 21.07 ЮЗ 2 24 км 4/0
[Ac trans Ci fib]
+12.6 +9.2 80 +12 +13 1022.1 1018.0 +10.3 +22.2
15 21.07 ЮЗ 3 45 км 6/0
[]
+17.7 +9.9 60 +18 +23 1022.5 1018.4
18 21.07 Ю 2 24 км 8/1 600 м
[Cu hum Ac As Ci fib]
+19.3 +11.5 61 +21 +27 комфорт 1022.8 1018.7 +10.3 +20.5
21 21.07 ЮВ 3 45 км 6/6 1000 м
[]
+19.7 +11.8 60 +21 +24 комфорт 1023.1 1019.0
00 22.07 ЮЗ 5 45 км осадки на расстоянии 4/3 1000 м
[Cu med, cong Ci fib]
+18.7 +11.3 62 +19 +20 1023.6 1019.5 +10.3 +21.0
03 22.07 ЮЗ 4 24 км 4/4 1000 м
[]
+14.1 +10.0 76 +13 +13 1023.9 1019.8
06 22.07 ЮЗ 4 24 км 5/1 1000 м
[Sc Ci fib]
+11.3 +8.8 85 +9 +9 1024.4 1020.3 +10.3 +21.0 23
09 22.07 Ю 4 24 км 6/6 1000 м
[]
+9.1 +8.2 94 +6 +6 1024.7 1020.6
12 22.07 Ю 4 24 км 8/0
[Ci fib]
+10.3 +8.3 87 +8 +9 1024.3 1020.2 +9.0 +21.0
15 22.07 Ю 6 24 км 8/0
[]
+11.3 +8.4 82 +8 +10 1023.7 1019.6
18 22.07 Ю 6 24 км 9/1 600 м
[Sc Ac As Ci fib]
+11.9 +8.3 79 +9 +11 1022.7 1018.6 +9.0 +12.0
21 22.07 Ю 8 24 км 9/9 600 м
[]
+10.3 +7.6 83 +6 +7 1022.4 1018.3
00 23.07 Ю 4 24 км слабый дождь 10/1 1000 м
[Sc Ac As]
+9.8 +7.9 88 +7 +8 1022.0 1017.9 +9.0 +12.0 0.0

 

Местоположение метеостанции Rankin Inlet (Канада): широта 62.82 долгота -92.11 высота над уровнем моря 31 м.

В архиве по умолчанию представлена погода в Rankin Inlet за последнюю неделю. Архивные данные за месяц целиком и за предыдущие месяцы, начиная с января 2011 года, Вы можете получить, выбрав интересующий диапазон дат из раскрывающегося списка и нажав кнопку "Ввод!".


*Определитесь, кто Вы:
робот инопланетянин человек

Внимание! Время в таблицах - всемирное. Для получения местного времени необходимо прибавить поправку, которая в Rankin Inlet равна -6 ч.

Смотрите также архив погоды в соседних городах и на ближайших метеорологических станциях:

Погода в Arviat Climate (Канада) (217 км)
Погода в Arviat (Канада) (217 км)
Погода в Arviat Airport (Канада) (218 км)
Погода в Baker Lake Climate (Канада) (255 км)
Погода в Baker Lake Airport (Канада) (256 км)
Погода в Wager Bay (Канада) (364 км)
Погода в Back River MAPS (Канада) (419 км)
Погода в Coral Harbour Arpt (Канада) (460 км)
Погода в Churchill Climate (Канада) (468 км)
Погода в Dubawnt Lake (Канада) (486 км)

Пояснения к столбцам:

Ветер - указаны скорость ветра в м/с - средняя за 10 мин, порывы в срок и между сроками (в фигурных скобках) и направление, откуда дует ветер: С - северный, СВ - северо-восточный, В - восточный, ЮВ - юго-восточный, Ю - южный, ЮЗ - юго-западный, З - западный, СЗ - северо-западный.
Видимость - горизонтальная дальность видимости в метрах или километрах. При видимости от 1 до 10 км при отсутствии осадков обычно наблюдается дымка, при ухудшении видимости до 1 км и менее - туман. В сухую погоду видимость может ухудшаться дымом, пылью или мглою.
Явления - указаны атмосферные явления, наблюдавшиеся в срок или в последний час перед сроком; фигурными скобками обозначены явления, наблюдавшиеся между сроками (за 1-3 часа до срока); квадратными скобками обозначены град или гололедные отложения с указанием их диаметра в мм.
Облачность - указаны через наклонную черту общая и нижняя облачность в баллах и высота нижней границы облаков в метрах; квадратными скобками обозначены формы облаков: Ci - перистые, Cs - перисто-слоистые, Cc - перисто-кучевые, Ac - высококучевые, As - высокослоистые, Sc - слоисто-кучевые, Ns - слоисто-дождевые, Cu - кучевые, Cb - кучево-дождевые. Подробнее классификацию облаков см. в Атласе облаков (PDF).
T - Температура воздуха - температура, измеренная на высоте 2 м над землей.
Td - Температура точки росы - температура, при понижении до которой содержащийся в воздухе водяной пар достигнет насыщения.
f - Относительная влажность воздуха - влажноcть воздуха, измеренная на высоте 2 м над землей.
Te - Эффективная температура - температура, которую ощущает одетый по сезону человек в тени. Характеристика душности погоды. При расчете учитывается влияние влажности воздуха и скорости ветра на теплоощущения человека.
Tes - Эффективная температура на солнце - температура, которую ощущает человек, с поправкой на солнечный нагрев. Характеристика знойности погоды. Зависит от высоты солнца над горизонтом, облачности и скорости ветра. Ночью, в пасмурную погоду, а также при ветре 12 м/с и более поправка равна нулю.
P - Атмосферное давление - приведенное к уровню моря атмосферное давление.
Po - Атмосферное давление - измеренное на уровне метеостанции атмосферное давление.
Tmin - Минимальная температура - минимум температуры воздуха на высоте 2 м над землей.
Tmax - Максимальная температура - максимум температуры воздуха на высоте 2 м над землей.
R - Количество осадков - Количество выпавших осадков за период времени, мм. При наведении курсора мыши на число - период времени, за который выпало указанное количество осадков.
R24 - Количество осадков - Количество выпавших осадков за 24 часа, мм.
S - Снежный покров - Высота снежного покрова, см. При наведении курсора мыши на число - состояние снежного покрова и степень покрытия местности в баллах.